Tracking 22100 objects as of 19-Jan-2021
HD Live streaming from Space Station
objects crossing your sky now

STARLINK-1175

Track STARLINK-1175 now!
10-day predictions
STARLINK-1175 is classified as:


NORAD ID: 45097
Int'l Code: 2020-006BF
Perigee: 291.2 km
Apogee: 302.1 km
Inclination: 53.0 °
Period: 90.3 minutes
Semi major axis: 6667 km
RCS: Unknown
Launch date: January 29, 2020
Source: United States (US)
Launch site: AIR FORCE EASTERN TEST RANGE (AFETR)
aabbcc
Your satellite tracking list
Your tracking list is empty




NASA's NSSDC Master Catalog

Two Line Element Set (TLE):
1 45097U 20006BF  21018.88369818 -.00050507  11933-4 -12011-3 0  9994
2 45097  52.9891 240.9436 0008140 283.6649  76.3470 15.94578740 56323
Source of the keplerian elements: AFSPC